1497250800.33,6425,19.94,74144.0,13.33,-8.21,-15.07,0,*42
1497250801.53,6426,19.94,74146.3,13.33,-8.37,-15.25,0,*46
1497250802.78,6427,19.94,74146.3,13.33,-8.51,-15.35,0,*46
1497250803.97,6428,19.94,74142.8,13.33,-8.45,-15.11,0,*4A
1497250805.19,6429,19.94,74144.0,13.33,-8.63,-15.35,0,*49
1497250806.39,6430,19.94,74146.5,13.33,-8.59,-15.25,0,*49
1497250807.62,6431,19.94,74146.5,13.35,-8.33,-14.97,0,*4A
1497250808.87,6432,19.94,74144.0,13.35,-8.75,-15.43,0,*43
1497250810.14,6433,19.94,74144.0,13.35,-9.15,-15.85,0,*4F
1497250811.35,6434,19.94,74144.5,13.35,-8.67,-15.07,0,*46
1497250812.59,6435,20.0,74144.0,13.35,-8.67,-15.21,0,*43
1497250813.84,6436,19.94,74146.5,13.35,-8.89,-15.35,0,*45
1497250815.06,6437,19.94,74146.3,13.37,-9.11,-15.63,0,*45
1497250816.28,6438,20.0,74144.5,13.37,-8.89,-15.35,0,*49
1497250817.49,6439,19.94,74144.0,13.41,-8.93,-15.25,0,*43
1497250818.69,6440,19.94,74144.5,13.37,-8.97,-15.29,0,*44
1497250819.89,6441,19.94,74142.3,13.41,-8.85,-15.15,0,*48
1497250821.15,6442,19.94,74146.5,13.41,-9.11,-15.39,0,*49
1497250822.39,6443,19.94,74146.0,13.41,-8.81,-15.01,0,*4B
1497250823.59,6444,19.94,74146.8,13.41,-8.93,-15.15,0,*4A
1497250824.86,6445,19.94,74144.8,13.43,-9.15,-15.35,0,*44
1497250826.1,6446,19.94,74146.3,13.43,-8.75,-14.79,0,*49
1497250827.32,6447,19.94,74144.5,13.45,-8.75,-14.79,0,*4E
1497250828.55,6448,20.0,74146.5,13.45,-8.89,-14.93,0,*46
1497250829.82,6449,19.94,74144.0,13.47,-9.37,-15.43,0,*4D
1497250831.02,6450,19.94,74144.3,13.49,-9.27,-15.49,0,*40
1497250832.24,6451,20.0,74146.8,13.49,-9.53,-15.53,0,*49
1497250833.46,6452,19.94,74146.8,13.49,-9.49,-15.53,0,*41
1497250834.68,6453,19.94,74146.0,13.49,-9.45,-15.29,0,*41
1497250835.92,6454,20.0,74148.0,13.49,-9.49,-15.43,0,*46
1497250837.11,6455,19.94,74146.5,13.49,-9.67,-15.67,0,*4D
1497250838.35,6456,20.0,74146.8,13.51,-9.53,-15.29,0,*4A
1497250839.57,6457,19.94,74146.3,13.51,-9.31,-15.11,0,*44
1497250840.76,6458,19.94,74146.3,13.53,-9.31,-15.07,0,*4E
1497250841.97,6459,19.94,74144.5,13.53,-9.71,-15.53,0,*4A
1497250843.21,6460,19.94,74144.8,13.55,-9.53,-15.15,0,*44
1497250844.47,6461,19.94,74146.0,13.55,-9.41,-15.01,0,*43
1497250845.7,6462,19.94,74146.8,13.53,-9.31,-14.97,0,*4F
1497250846.97,6463,19.94,74144.3,13.57,-9.37,-15.01,0,*42
1497250848.19,6464,20.0,74146.0,13.57,-9.67,-15.15,0,*45
1497250849.44,6465,19.94,74144.8,13.57,-9.53,-15.07,0,*40
1497250850.63,6466,19.94,74144.0,13.59,-9.89,-15.29,0,*46
1497250851.86,6467,19.94,74146.3,13.59,-10.01,-15.43,0,*73
1497250853.06,6468,20.0,74150.0,13.59,-10.05,-15.53,0,*79
1497250854.26,6469,19.94,74142.8,13.63,-10.45,-15.95,0,*7F
1497250855.46,6470,19.94,74146.0,13.63,-10.09,-15.49,0,*7E
1497250856.67,6471,19.94,74146.3,13.63,-10.19,-15.49,0,*7E
1497250857.87,6472,19.94,74146.5,13.63,-10.01,-15.25,0,*7E
1497250859.07,6473,19.94,74146.5,13.63,-10.09,-15.25,0,*77
1497250860.27,6474,19.94,74144.8,13.67,-10.53,-15.67,0,*7D
1497250861.49,6475,19.94,74146.5,13.65,-10.93,-15.99,0,*73
1497250862.78,6476,19.94,74146.3,13.65,-10.67,-15.81,0,*72
1497250864.01,6477,19.94,74144.8,13.65,-10.57,-15.67,0,*78
1497250865.27,6478,19.94,74142.8,13.65,-10.67,-15.75,0,*77
1497250866.5,6479,20.0,74146.5,13.69,-10.85,-15.71,0,*72
1497250867.75,6480,20.0,74150.5,13.65,-10.75,-15.75,0,*73
1497250868.98,6481,19.94,74144.3,13.67,-11.11,-16.17,0,*74
1497250870.21,6482,19.94,74144.8,13.67,-11.01,-15.89,0,*72
1497250871.44,6483,20.0,74146.5,13.67,-11.59,-16.45,0,*7D
1497250872.68,6484,19.94,74146.8,13.65,-11.51,-16.37,0,*75
1497250873.94,6485,19.94,74140.5,13.65,-11.41,-16.23,0,*70
1497250875.19,6486,19.94,74146.3,13.65,-11.77,-16.45,0,*76
1497250876.46,6487,19.94,74146.3,13.65,-11.55,-16.13,0,*74
1497250877.72,6488,20.0,74148.8,13.65,-11.29,-15.95,0,*7D
1497250878.97,6489,19.94,74144.5,13.69,-11.81,-16.45,0,*7C
1497250880.22,6490,20.0,74150.0,13.67,-11.51,-16.09,0,*7F
1497250881.42,6491,20.0,74148.5,13.67,-11.19,-15.75,0,*7A
1497250882.67,6492,19.94,74146.8,13.65,-11.51,-15.99,0,*75
1497250883.87,6493,20.0,74148.8,13.67,-11.23,-15.67,0,*72
1497250885.13,6494,19.94,74144.5,13.69,-10.89,-15.39,0,*71
1497250886.35,6495,19.94,74144.0,13.71,-11.33,-15.71,0,*75
1497250887.57,6496,20.0,74146.3,13.71,-11.19,-15.57,0,*7A
1497250888.83,6497,19.94,74148.0,13.69,-11.29,-15.63,0,*76
1497250890.09,6498,19.94,74144.8,13.73,-11.11,-15.39,0,*76
1497250891.35,6499,19.94,74144.8,13.73,-10.97,-15.21,0,*71
1497250892.59,6500,19.94,74144.3,13.73,-10.97,-15.11,0,*73
1497250893.84,6501,19.94,74148.3,13.73,-11.15,-15.35,0,*7F
1497250895.05,6502,19.94,74146.8,13.75,-10.97,-15.15,0,*73
1497250896.29,6503,20.0,74148.3,13.75,-11.33,-15.53,0,*7F
1497250897.53,6504,19.94,74144.8,13.77,-11.73,-15.67,0,*79
1497250898.78,6505,19.94,74144.8,13.77,-11.23,-15.35,0,*7A
1497250900.02,6506,20.0,74148.8,13.79,-11.45,-15.43,0,*76
1497250901.27,6507,19.94,74144.8,13.79,-11.59,-15.43,0,*7A
1497250902.53,6508,19.94,74146.3,13.77,-11.77,-15.75,0,*72
1497250903.75,6509,19.94,74144.3,13.79,-11.89,-15.63,0,*7B
1497250905.01,6510,19.94,74144.0,13.77,-11.73,-15.53,0,*7B
1497250906.24,6511,20.0,74150.3,13.79,-12.11,-15.75,0,*77
1497250907.49,6512,20.0,74148.8,13.79,-11.67,-15.43,0,*73
1497250908.74,6513,19.94,74150.0,13.79,-11.73,-15.43,0,*77
1497250910.0,6514,20.0,74148.0,13.81,-11.85,-15.49,0,*74
1497250911.28,6515,20.0,74148.3,13.85,-11.73,-15.43,0,*72
1497250912.55,6516,19.94,74148.5,13.85,-11.81,-15.43,0,*7C
1497250913.8,6517,20.0,74150.5,13.85,-11.51,-15.07,0,*70
1497250915.06,6518,20.0,74148.3,13.85,-11.63,-15.07,0,*7E
1497250916.31,6519,20.0,74148.3,13.89,-11.63,-15.01,0,*75
1497250917.54,6520,19.94,74144.5,13.89,-11.55,-14.89,0,*7B
1497250918.8,6521,19.94,74150.8,13.89,-11.63,-14.97,0,*70
1497250920.05,6522,19.94,74146.0,13.89,-11.59,-14.75,0,*76
1497250921.31,6523,19.94,74150.5,13.89,-11.29,-14.47,0,*71
1497250922.56,6524,19.94,74150.3,13.93,-11.55,-14.79,0,*7B
1497250923.84,6525,20.0,74150.8,13.95,-11.55,-14.93,0,*78
1497250925.04,6526,19.94,74144.5,13.97,-12.03,-15.25,0,*75
1497250926.27,6527,19.94,74148.3,13.97,-11.33,-14.37,0,*76
1497250927.52,6528,20.0,74150.8,13.97,-11.37,-14.47,0,*7A
1497250928.77,6529,19.94,74148.3,13.97,-11.77,-14.79,0,*72
1497250929.99,6530,19.94,74150.5,14.01,-11.97,-14.89,0,*73
1497250931.22,6531,20.0,74150.8,14.01,-12.03,-14.97,0,*73
1497250932.44,6532,20.0,74150.0,14.01,-12.29,-15.21,0,*74
1497250933.65,6533,20.0,74148.5,14.01,-12.47,-15.29,0,*75
1497250934.9,6534,19.94,74150.0,14.01,-12.11,-14.83,0,*70
1497250936.16,6535,19.94,74148.3,14.03,-11.73,-14.43,0,*78
1497250937.4,6536,19.94,74148.0,14.05,-11.81,-14.51,0,*73
1497250938.63,6537,19.94,74150.5,14.05,-11.89,-14.61,0,*79
1497250939.85,6538,19.94,74148.8,14.05,-11.67,-14.37,0,*75
1497250941.07,6539,19.94,74150.5,14.09,-11.73,-14.29,0,*72
1497250942.28,6540,19.94,74150.0,14.11,-12.03,-14.61,0,*7D
1497250943.53,6541,20.0,74148.3,14.13,-11.97,-14.51,0,*73
1497250944.75,6542,20.0,74150.3,14.13,-12.39,-14.83,0,*78
1497250945.97,6543,19.94,74148.8,14.13,-12.39,-14.97,0,*7C
1497250947.24,6544,20.0,74152.3,14.15,-12.11,-14.51,0,*7D
1497250948.51,6545,20.0,74150.5,14.15,-12.11,-14.43,0,*7F
1497250949.75,6546,20.0,74150.8,14.19,-11.89,-14.19,0,*7D
1497250951.01,6547,19.94,74148.8,14.19,-11.97,-14.43,0,*7C
1497250952.29,6548,20.0,74150.5,14.21,-12.57,-14.83,0,*7B
1497250953.51,6549,20.0,74154.8,14.23,-12.29,-14.51,0,*7E
1497250954.75,6550,20.0,74150.3,14.21,-13.07,-15.29,0,*77
1497250956.01,6551,20.0,74150.0,14.21,-13.19,-15.43,0,*75
1497250957.23,6552,19.94,74150.8,14.23,-12.43,-14.51,0,*78
1497250958.48,6553,20.0,74148.5,14.23,-11.97,-14.01,0,*76
1497250959.7,6554,19.94,74150.8,14.23,-11.73,-13.69,0,*72
1497250960.91,6555,19.94,74148.3,14.23,-11.73,-13.69,0,*73
1497250962.11,6556,19.94,74144.8,14.27,-11.23,-13.11,0,*7E
1497250963.37,6557,20.0,74150.8,14.27,-10.67,-12.53,0,*79
1497250964.65,6558,19.94,74146.0,14.33,-10.75,-12.53,0,*70
1497250965.94,6559,19.94,74146.3,14.37,-10.67,-12.35,0,*76
1497250967.16,6560,19.94,74148.0,14.41,-10.49,-12.21,0,*74
1497250968.41,6561,19.94,74148.0,14.41,-10.27,-12.07,0,*79
1497250969.65,6562,20.0,74150.3,14.45,-10.19,-11.85,0,*7A
1497250970.89,6563,19.94,74150.0,14.49,-10.85,-12.65,0,*7F
1497250972.15,6564,19.94,74148.3,14.49,-10.97,-12.75,0,*7A
1497250973.38,6565,19.94,74150.0,14.55,-11.45,-13.11,0,*7B
1497250974.61,6566,19.94,74150.0,14.55,-11.45,-12.89,0,*78
1497250975.86,6567,19.94,74148.0,14.59,-11.23,-12.75,0,*76
1497250977.14,6568,20.0,74150.5,14.59,-11.63,-13.29,0,*75
1497250978.38,6569,19.94,74148.3,14.61,-11.51,-13.01,0,*74
1497250979.6,6570,19.94,74148.8,14.63,-10.89,-12.29,0,*71
1497250980.82,6571,19.94,74148.0,14.67,-10.85,-12.39,0,*79
1497250982.06,6572,20.0,74148.3,14.67,-11.67,-13.43,0,*7B
1497250983.27,6573,20.0,74150.0,14.69,-12.21,-13.73,0,*76
1497250984.51,6574,20.0,74150.5,14.71,-12.79,-14.19,0,*7E
1497250985.74,6575,20.0,74152.5,14.69,-12.35,-13.73,0,*75
1497250986.98,6576,20.0,74154.0,14.71,-12.39,-13.87,0,*78
1497250988.2,6577,20.0,74152.5,14.75,-12.25,-13.69,0,*70
1497250989.47,6578,19.94,74148.5,14.75,-12.11,-13.33,0,*77
1497250990.72,6579,19.94,74148.3,14.75,-12.15,-13.55,0,*72
1497250991.96,6580,19.94,74150.8,14.77,-12.07,-13.37,0,*71
1497250993.16,6581,20.0,74148.3,14.77,-12.39,-13.65,0,*7A
1497250994.37,6582,20.0,74150.8,14.79,-12.39,-13.65,0,*77
1497250995.64,6583,19.94,74148.5,14.79,-11.81,-13.01,0,*74
1497250996.86,6584,19.94,74150.8,14.81,-10.35,-11.51,0,*7D
1497250998.09,6585,19.94,74150.8,14.85,-9.27,-10.41,0,*43
1497250999.3,6586,20.0,74152.0,14.89,-8.25,-9.41,0,*77
1497251000.54,6587,19.94,74148.5,14.93,-8.07,-9.15,0,*7C
1497251001.78,6588,20.0,74150.5,15.03,-7.65,-8.75,0,*77
1497251003.04,6589,19.94,74148.3,15.07,-7.73,-8.81,0,*7E
1497251004.28,6590,19.94,74148.3,15.13,-8.07,-9.11,0,*77
1497251005.51,6591,19.94,74150.8,15.17,-8.29,-9.41,0,*7B
1497251006.76,6592,19.94,74150.8,15.25,-8.37,-9.45,0,*72
1497251008.01,6593,20.0,74154.3,15.29,-8.51,-9.57,0,*7C
1497251009.23,6594,19.94,74150.3,15.33,-8.63,-9.67,0,*72
1497251010.47,6595,19.94,74150.3,15.37,-8.55,-9.53,0,*75
1497251011.7,6596,20.0,74154.5,15.43,-7.95,-8.81,0,*78
1497251012.9,6597,19.94,74150.5,15.47,-7.77,-8.75,0,*7A
1497251014.17,6598,20.0,74152.3,15.51,-8.51,-9.49,0,*77
1497251015.41,6599,19.94,74150.0,15.55,-8.55,-9.45,0,*7A
1497251016.62,6600,19.94,74150.3,15.59,-8.25,-9.05,0,*76
1497251017.85,6601,19.94,74150.8,15.63,-8.33,-9.15,0,*78
1497251019.06,6602,20.0,74152.8,15.69,-8.11,-8.93,0,*7E
1497251020.27,6603,19.94,74150.3,15.73,-8.67,-9.61,0,*79
1497251021.48,6604,20.0,74152.3,15.77,-8.55,-9.41,0,*79
1497251022.7,6605,20.0,74152.0,15.81,-7.95,-8.67,0,*77
1497251023.93,6606,20.0,74152.3,15.85,-7.95,-8.59,0,*7D
1497251025.13,6607,19.94,74150.5,15.91,-7.69,-8.41,0,*73
1497251026.34,6608,19.94,74154.8,15.95,-8.11,-8.85,0,*70
1497251027.54,6609,19.94,74148.3,15.99,-7.91,-8.59,0,*7B
1497251028.74,6610,19.94,74148.5,16.03,-7.87,-8.51,0,*7C
1497251029.94,6611,19.94,74150.5,16.07,-7.91,-8.59,0,*76
1497251031.15,6612,19.94,74150.3,16.15,-7.99,-8.75,0,*70
1497251032.35,6613,20.0,74152.3,16.15,-8.63,-9.27,0,*7D
1497251033.59,6614,20.0,74148.5,16.21,-8.41,-9.11,0,*78
1497251034.79,6615,20.0,74152.3,16.23,-8.37,-9.05,0,*7F
1497251035.99,6616,19.94,74150.5,16.31,-7.91,-8.55,0,*78
1497251037.21,6617,19.94,74148.5,16.37,-8.29,-9.01,0,*73
1497251038.4,6618,19.94,74150.8,16.39,-8.33,-9.01,0,*79
1497251039.64,6619,19.94,74150.8,16.43,-8.81,-9.37,0,*79
1497251040.83,6620,19.94,74152.8,16.45,-8.75,-9.31,0,*78
1497251042.05,6621,20.0,74150.0,16.45,-8.41,-8.81,0,*74
1497251043.26,6622,20.0,74150.3,16.51,-8.29,-8.71,0,*73
1497251044.48,6623,20.0,74152.0,16.53,-8.55,-9.11,0,*7C
1497251045.72,6624,20.0,74152.5,16.59,-8.59,-9.15,0,*79
1497251046.93,6625,20.0,74152.3,16.61,-8.81,-9.27,0,*77
1497251048.16,6626,19.94,74150.3,16.63,-9.23,-9.61,0,*7D
1497251049.44,6627,19.94,74150.3,16.67,-9.15,-9.57,0,*78
1497251050.66,6628,20.0,74152.3,16.67,-8.89,-9.27,0,*74
1497251051.9,6629,19.94,74150.0,16.71,-8.75,-9.15,0,*70
1497251053.11,6630,19.94,74148.5,16.75,-8.63,-8.97,0,*70
1497251054.33,6631,20.0,74150.0,16.75,-8.71,-8.97,0,*72
1497251055.54,6632,19.94,74146.5,16.81,-8.59,-8.97,0,*70
1497251056.78,6633,20.0,74150.8,16.85,-9.05,-9.45,0,*73
1497251058.0,6634,20.0,74150.0,16.87,-9.19,-9.57,0,*78
1497251059.23,6635,19.94,74148.0,16.89,-9.71,-10.01,0,*42
1497251060.47,6636,19.94,74150.8,16.93,-9.41,-9.79,0,*7E
1497251061.68,6637,19.94,74146.5,16.93,-9.93,-10.23,0,*47
1497251062.92,6638,20.0,74150.3,16.97,-9.61,-9.97,0,*76
1497251064.17,6639,19.94,74146.8,16.97,-10.27,-10.67,0,*7A
1497251065.41,6640,19.94,74150.3,16.99,-10.35,-10.63,0,*7D
1497251066.64,6641,20.0,74152.3,17.01,-9.49,-9.67,0,*73
1497251067.89,6642,20.0,74152.3,17.01,-10.23,-10.63,0,*78
1497251069.1,6643,20.0,74148.8,17.05,-10.89,-11.19,0,*71
1497251070.35,6644,19.94,74148.3,17.07,-10.63,-10.71,0,*7F
1497251071.56,6645,20.0,74150.3,17.07,-9.61,-9.97,0,*74
1497251072.77,6646,20.0,74150.8,17.11,-9.93,-9.97,0,*7D
1497251073.99,6647,20.0,74150.5,17.11,-10.01,-10.15,0,*7D
1497251075.23,6648,20.0,74154.8,17.15,-9.83,-10.05,0,*45
1497251076.47,6649,19.94,74148.3,17.13,-10.35,-10.63,0,*77
1497251077.74,6650,20.0,74154.5,17.15,-11.37,-11.73,0,*7A
1497251078.97,6651,20.0,74154.3,17.15,-10.85,-11.01,0,*76
1497251080.16,6652,20.0,74154.0,17.17,-10.01,-10.19,0,*73
1497251081.39,6653,20.0,74148.8,17.19,-10.23,-10.49,0,*79
1497251082.61,6654,20.0,74150.5,17.19,-10.93,-11.23,0,*78
1497251083.81,6655,20.0,74150.5,17.21,-11.01,-11.41,0,*7C
1497251085.04,6656,20.0,74150.5,17.21,-11.97,-12.25,0,*71
1497251086.29,6657,19.94,74150.5,17.23,-10.89,-11.07,0,*7F
1497251087.57,6658,19.94,74150.0,17.23,-10.63,-10.79,0,*7C
1497251088.82,6659,19.94,74150.0,17.23,-11.07,-11.41,0,*74
1497251090.07,6660,20.0,74148.3,17.23,-11.07,-11.45,0,*7A
1497251091.33,6661,20.0,74148.3,17.27,-10.67,-10.89,0,*79
1497251092.54,6662,20.0,74148.5,17.29,-11.11,-11.33,0,*74
1497251093.79,6663,19.94,74150.0,17.29,-11.33,-11.55,0,*75
1497251095.0,6664,19.94,74148.5,17.29,-12.21,-12.39,0,*7B
1497251096.25,6665,19.94,74148.5,17.29,-11.77,-12.15,0,*74
1497251097.48,6666,19.94,74148.0,17.29,-12.21,-12.61,0,*74
1497251098.72,6667,19.94,74148.3,17.29,-12.65,-13.01,0,*72
1497251099.97,6668,20.0,74152.3,17.27,-12.79,-13.11,0,*7F
1497251101.2,6669,19.94,74144.5,17.21,-12.47,-12.75,0,*76
1497251102.45,6670,19.94,74146.8,17.27,-11.97,-12.21,0,*77
1497251103.7,6671,20.0,74150.8,17.27,-12.07,-12.25,0,*78
1497251104.95,6672,20.0,74150.8,17.29,-12.65,-12.75,0,*74
1497251106.19,6673,20.0,74148.5,17.27,-13.11,-13.37,0,*7E
1497251107.44,6674,20.0,74150.8,17.27,-14.05,-14.37,0,*7C
1497251108.7,6675,20.0,74148.8,17.23,-13.01,-13.23,0,*78
1497251109.91,6676,20.0,74148.0,17.21,-13.47,-13.87,0,*75
1497251111.14,6677,20.0,74148.3,17.21,-14.01,-14.33,0,*79
1497251112.35,6678,19.94,74150.5,17.17,-12.57,-13.07,0,*76
1497251113.6,6679,20.0,74150.3,17.19,-12.15,-12.47,0,*7A
1497251114.86,6680,20.0,74148.8,17.19,-11.93,-12.21,0,*71
1497251116.11,6681,20.0,74152.5,17.19,-11.81,-12.21,0,*73
1497251117.36,6682,20.0,74152.3,17.19,-11.89,-12.21,0,*78
1497251118.64,6683,19.94,74148.0,17.19,-11.67,-11.93,0,*73
1497251119.88,6684,20.0,74152.0,17.21,-11.85,-12.15,0,*7E
1497251121.13,6685,20.0,74148.8,17.23,-11.85,-12.29,0,*72
1497251122.36,6686,20.0,74148.3,17.23,-12.25,-12.47,0,*70
1497251123.58,6687,20.0,74150.0,17.21,-13.29,-13.73,0,*78
1497251124.83,6688,20.0,74148.8,17.23,-13.01,-13.55,0,*7B
1497251126.05,6689,19.94,74146.5,17.21,-13.37,-13.73,0,*79
1497251127.28,6690,20.0,74150.5,17.19,-12.89,-13.19,0,*72
1497251128.53,6691,20.0,74150.3,17.19,-12.43,-12.75,0,*7E
1497251129.78,6692,20.0,74150.5,17.19,-12.29,-12.75,0,*71
1497251131.0,6693,20.0,74150.3,17.19,-12.43,-12.93,0,*74
1497251132.26,6694,19.94,74148.0,17.19,-12.21,-12.61,0,*7A
1497251133.45,6695,20.0,74154.0,17.17,-13.07,-13.51,0,*72
1497251134.67,6696,20.0,74150.3,17.21,-11.89,-12.39,0,*7F
1497251135.92,6697,20.0,74148.3,17.21,-11.55,-11.97,0,*78
1497251137.15,6698,20.0,74148.5,17.21,-10.63,-11.01,0,*7C
1497251138.4,6699,20.0,74152.3,17.23,-10.75,-11.19,0,*71
1497251139.67,6700,20.0,74150.5,17.27,-11.29,-11.85,0,*79
1497251140.93,6701,20.0,74150.5,17.27,-10.67,-11.15,0,*7A
1497251142.12,6702,20.0,74154.0,17.33,-10.45,-11.01,0,*79
1497251143.32,6703,20.0,74148.3,17.33,-10.57,-11.15,0,*7E
1497251144.54,6704,20.0,74148.5,17.33,-11.01,-11.59,0,*73
1497251145.76,6705,20.0,74150.8,17.33,-11.15,-11.73,0,*7F
1497251147.01,6706,20.0,74150.0,17.33,-11.33,-12.11,0,*7F
1497251148.26,6707,19.94,74150.0,17.37,-11.55,-12.07,0,*7D
1497251149.51,6708,20.0,74152.3,17.35,-11.23,-11.81,0,*7C
1497251150.7,6709,20.0,74150.0,17.37,-12.39,-13.07,0,*7B
1497251151.95,6710,19.94,74144.8,17.37,-11.89,-12.61,0,*7A
1497251153.17,6711,20.0,74146.5,17.37,-11.15,-11.85,0,*77
1497251154.42,6712,20.0,74150.3,17.35,-11.01,-11.73,0,*7A
1497251155.7,6713,20.0,74148.5,17.39,-10.41,-11.07,0,*71
1497251156.91,6714,20.0,74148.5,17.41,-10.53,-11.33,0,*7D
1497251158.14,6715,20.0,74150.0,17.41,-11.15,-11.89,0,*7E
1497251159.39,6716,19.94,74144.0,17.43,-11.15,-11.97,0,*70
1497251160.61,6717,20.0,74150.5,17.45,-11.23,-11.97,0,*72
1497251161.87,6718,20.0,74148.8,17.49,-11.29,-12.11,0,*76
1497251163.09,6719,20.0,74148.0,17.49,-11.11,-12.07,0,*7B
1497251164.35,6720,20.0,74150.5,17.49,-11.29,-12.11,0,*7D
1497251165.58,6721,20.0,74146.8,17.49,-11.07,-12.03,0,*73
1497251166.83,6722,20.0,74148.5,17.49,-11.29,-12.11,0,*7F
1497251168.07,6723,20.0,74146.0,17.51,-11.19,-12.07,0,*73
1497251169.34,6724,20.0,74146.5,17.51,-10.41,-11.37,0,*78
1497251170.54,6725,20.0,74146.5,17.53,-10.23,-11.15,0,*7F
1497251171.78,6726,20.0,74150.0,17.55,-9.53,-10.57,0,*42
1497251173.03,6727,20.0,74144.5,17.59,-9.31,-10.41,0,*4C
1497251174.28,6728,20.0,74148.5,17.59,-9.31,-10.41,0,*43
1497251175.5,6729,20.0,74150.3,17.63,-9.75,-10.85,0,*43
1497251176.76,6730,20.0,74148.3,17.63,-9.11,-10.31,0,*46
1497251177.96,6731,20.0,74148.8,17.67,-9.97,-11.11,0,*4E
1497251179.18,6732,19.94,74144.5,17.67,-8.93,-10.09,0,*40
1497251180.42,6733,20.0,74148.0,17.73,-9.01,-10.27,0,*42
1497251181.67,6734,20.0,74144.0,17.75,-9.45,-10.75,0,*44
1497251182.92,6735,20.0,74148.0,17.77,-9.37,-10.57,0,*42
1497251184.2,6736,20.0,74150.3,17.81,-9.45,-10.67,0,*4E
1497251185.43,6737,20.0,74150.3,17.81,-9.57,-10.85,0,*40
1497251186.7,6738,20.0,74148.0,17.85,-9.37,-10.71,0,*46
1497251187.89,6739,20.0,74144.8,17.87,-8.63,-9.93,0,*71
1497251189.11,6740,20.0,74150.3,17.89,-8.75,-10.09,0,*4D
1497251190.35,6741,20.0,74146.8,17.95,-8.03,-9.37,0,*75
1497251191.55,6742,20.0,74146.5,17.99,-7.27,-8.59,0,*7A
1497251192.75,6743,20.0,74148.5,18.03,-7.27,-8.59,0,*77
1497251193.99,6744,20.0,74146.8,18.07,-7.61,-8.97,0,*74
1497251195.21,6745,20.0,74148.0,18.07,-8.29,-9.75,0,*7B
1497251196.42,6746,20.0,74144.0,18.11,-8.29,-9.67,0,*7C
1497251197.61,6747,20.0,74144.0,18.17,-8.17,-9.75,0,*75
1497251198.83,6748,20.0,74148.3,18.17,-8.71,-10.19,0,*48
1497251200.02,6749,20.0,74150.0,18.21,-8.55,-10.09,0,*4B
1497251201.22,6750,20.0,74146.0,18.25,-8.41,-9.93,0,*79
1497251202.43,6751,20.0,74146.8,18.27,-7.19,-8.55,0,*73
1497251203.67,6752,20.0,74150.3,18.31,-6.73,-8.07,0,*7D
1497251204.9,6753,20.0,74146.8,18.37,-6.93,-8.29,0,*78
1497251206.14,6754,20.0,74146.0,18.37,-6.93,-8.21,0,*77
1497251207.32,6755,20.0,74144.8,18.47,-7.15,-8.67,0,*7C
1497251208.53,6756,20.0,74146.0,18.45,-8.45,-10.05,0,*4A
1497251209.76,6757,20.0,74144.5,18.51,-7.91,-9.41,0,*70
1497251210.96,6758,20.0,74144.8,18.51,-8.45,-10.01,0,*45
1497251212.18,6759,20.0,74144.0,18.53,-8.59,-10.09,0,*43
1497251213.43,6760,20.0,74146.5,18.55,-9.11,-10.63,0,*4E
1497251214.65,6761,20.0,74146.8,18.57,-9.31,-10.89,0,*4B
1497251215.89,6762,20.0,74144.0,18.59,-9.41,-10.71,0,*46
1497251217.09,6763,20.0,74146.8,18.59,-8.75,-10.35,0,*41
1497251218.3,6764,20.0,74150.0,18.65,-8.21,-9.71,0,*70
1497251219.51,6765,20.0,74144.0,18.67,-8.51,-9.93,0,*78
1497251220.71,6766,20.0,74150.0,18.69,-8.25,-9.67,0,*7D
1497251221.95,6767,20.0,74144.8,18.71,-8.21,-9.61,0,*77
1497251223.19,6768,20.0,74148.5,18.73,-8.07,-9.53,0,*7F
1497251224.41,6769,20.0,74146.8,18.75,-8.45,-9.97,0,*76
1497251225.6,6770,20.0,74144.3,18.77,-8.17,-9.75,0,*77
1497251226.87,6771,20.0,74146.5,18.79,-7.95,-9.41,0,*7A
1497251228.11,6772,20.0,74148.8,18.81,-8.11,-9.61,0,*7F
1497251229.35,6773,20.0,74144.0,18.87,-7.57,-8.93,0,*79
1497251230.54,6774,20.0,74144.8,18.89,-7.87,-9.31,0,*74
1497251231.77,6775,20.0,74144.3,18.93,-7.95,-9.41,0,*7A
1497251232.99,6776,20.0,74146.0,18.95,-8.67,-10.05,0,*45
1497251234.24,6777,20.0,74144.5,18.95,-8.81,-10.19,0,*41
1497251235.49,6778,20.0,74142.0,18.97,-9.15,-10.71,0,*4E
1497251236.76,6779,20.0,74146.8,18.99,-9.45,-10.79,0,*4C
1497251238.0,6780,20.0,74144.0,18.99,-9.31,-10.71,0,*41
1497251239.22,6781,20.0,74142.5,18.99,-8.67,-10.19,0,*4C
1497251240.42,6782,20.0,74146.8,19.03,-8.37,-9.79,0,*76
1497251241.62,6783,20.0,74146.3,19.03,-7.91,-9.31,0,*78
1497251242.86,6784,20.0,74144.8,19.07,-7.65,-9.15,0,*76
1497251244.07,6785,20.0,74140.5,19.11,-8.21,-9.61,0,*7C
1497251245.33,6786,20.0,74142.8,19.13,-7.91,-9.41,0,*7B
1497251246.53,6787,20.0,74144.0,19.17,-7.87,-9.23,0,*7D
1497251247.76,6788,20.0,74146.3,19.17,-8.93,-10.23,0,*40
1497251248.97,6789,20.0,74146.3,19.19,-9.57,-11.01,0,*47
1497251250.18,6790,20.0,74146.0,19.21,-9.71,-11.19,0,*49
1497251251.37,6791,20.0,74144.3,19.19,-8.55,-9.93,0,*7F
1497251252.58,6792,20.0,74144.3,19.21,-8.25,-9.71,0,*7C
1497251253.79,6793,20.0,74146.3,19.23,-7.65,-8.93,0,*79
1497251255.03,6794,20.0,74146.0,19.25,-8.07,-9.27,0,*7D
1497251256.24,6795,20.0,74146.0,19.27,-7.61,-9.05,0,*71
1497251257.48,6796,20.0,74146.0,19.27,-7.73,-9.11,0,*74
1497251258.74,6797,20.0,74148.3,19.35,-8.03,-9.37,0,*7A
1497251259.97,6798,20.0,74146.0,19.39,-7.91,-9.23,0,*78
1497251261.18,6799,20.0,74150.5,19.37,-7.69,-8.93,0,*7A
1497251262.41,6800,20.0,74146.0,19.43,-7.91,-9.31,0,*78
1497251263.62,6801,20.0,74148.5,19.43,-8.33,-9.71,0,*7A
1497251264.81,6802,20.0,74144.8,19.45,-7.53,-8.75,0,*73
1497251266.02,6803,20.0,74144.3,19.47,-7.19,-8.41,0,*79
1497251267.2,6804,20.0,74146.3,19.53,-7.49,-8.71,0,*7D
1497251268.41,6805,20.0,74146.8,19.53,-7.27,-8.45,0,*73
1497251269.61,6806,20.0,74146.3,19.57,-6.69,-7.99,0,*71
1497251270.82,6807,20.0,74144.3,19.61,-7.61,-8.89,0,*72
1497251272.06,6808,20.0,74144.5,19.63,-7.57,-8.89,0,*7A
1497251273.3,6809,20.0,74146.8,19.65,-7.35,-8.55,0,*78
1497251274.54,6810,20.0,74150.8,19.65,-7.77,-9.05,0,*72
1497251275.78,6811,20.0,74146.3,19.69,-8.81,-10.01,0,*45
1497251277.02,6812,20.0,74148.5,19.69,-8.37,-9.61,0,*75
1497251278.26,6813,20.0,74146.8,19.69,-8.89,-10.15,0,*4A
1497251279.45,6814,20.0,74150.8,19.71,-9.31,-10.49,0,*4F
1497251280.69,6815,20.0,74146.0,19.75,-9.15,-10.35,0,*47
1497251281.87,6816,20.0,74146.8,19.75,-10.05,-11.19,0,*72
1497251283.12,6817,20.0,74150.3,19.71,-10.41,-11.59,0,*73
1497251284.38,6818,20.0,74150.8,19.71,-10.63,-11.73,0,*74
1497251285.6,6819,20.0,74150.0,19.71,-10.35,-11.59,0,*7E
1497251286.88,6820,20.0,74148.0,19.69,-10.71,-11.85,0,*7C
1497251288.09,6821,20.0,74146.8,19.67,-10.23,-11.33,0,*79
1497251289.29,6822,20.0,74150.0,19.67,-10.89,-12.03,0,*7A
1497251290.51,6823,20.0,74148.3,19.67,-9.41,-10.49,0,*4B
1497251291.79,6824,20.0,74146.5,19.69,-9.49,-10.67,0,*46
1497251293.04,6825,20.0,74148.0,19.69,-10.19,-11.29,0,*71
1497251294.27,6826,20.0,74150.3,19.69,-10.27,-11.41,0,*71
1497251295.5,6827,20.0,74148.8,19.69,-9.83,-10.89,0,*43
1497251296.72,6828,20.0,74144.5,19.69,-8.63,-9.71,0,*7C
1497251297.91,6829,20.0,74152.5,19.71,-8.21,-9.05,0,*71
1497251299.14,6830,20.0,74148.5,19.75,-7.77,-8.81,0,*7C
1497251300.37,6831,20.0,74148.8,19.75,-8.03,-9.11,0,*79
1497251301.57,6832,20.0,74150.0,19.75,-8.71,-9.67,0,*7E
1497251302.8,6833,20.0,74150.8,19.77,-8.55,-9.53,0,*7C
1497251304.02,6834,20.0,74148.5,19.81,-8.37,-9.23,0,*71
1497251305.23,6835,20.0,74146.5,19.83,-8.75,-9.57,0,*77
1497251306.48,6836,20.0,74148.8,19.81,-10.01,-10.79,0,*78
1497251307.73,6837,20.0,74148.3,19.83,-10.63,-11.67,0,*71
1497251308.94,6838,20.0,74150.0,19.83,-8.37,-9.15,0,*7A
1497251310.13,6839,20.0,74148.3,19.83,-8.25,-9.05,0,*79
1497251311.33,6840,20.0,74146.8,19.85,-7.87,-8.67,0,*73
1497251312.54,6841,20.0,74150.8,19.87,-8.03,-8.85,0,*7F